QPF
0.00 0.00 0.00 0.00 0.00 0.00 0.00 0.00 0.00 0.00 0.00 0.00 0.00 0.00 0.00 0.00 0.00 0.00 0.00 0.00 0.00 0.00 0.00 0.00 0.00 0.00 0.00 0.00 0.00 0.00 0.00 0.00 0.00 0.00 0.00 0.00 0.00 0.00 0.00 0.00 0.00 0.00 0.00
0.00 0.00 0.00 0.00 0.00 0.00 0.00 0.00 0.00 0.00 0.00 0.00 0.00 0.00 0.00 0.00 0.00 0.00 0.00 0.00 0.00 0.00 0.00 0.00 0.00 0.00 0.00 0.00 0.00 0.00 0.00 0.00 0.00 0.00 0.00 0.00 0.00 0.00 0.00 0.00 0.00 0.00 0.00
0.00 0.00 0.00 0.00 0.00 0.00 0.00 0.00 0.00 0.00 0.00 0.00 0.00 0.00 0.00 0.00 0.00 0.00 0.00 0.00 0.00 0.00 0.00 0.00 0.00 0.00 0.00 0.00 0.00 0.00 0.00 0.00 0.00 0.00 0.00 0.00 0.00 0.00 0.00 0.00 0.00 0.00 0.00
0.00 0.00 0.00 0.01 0.01 0.00 0.00 0.00 0.00 0.00 0.00 0.00 0.00 0.00 0.00 0.00 0.00 0.00 0.00 0.00 0.00 0.00 0.00 0.00 0.00 0.00 0.00 0.00 0.00 0.00 0.00 0.00 0.00 0.00 0.00 0.00 0.00 0.00 0.00 0.00 0.00 0.00 0.00
0.00 0.00 0.01 0.00 0.00 0.00 0.00 0.00 0.00 0.00 0.00 0.00 0.00 0.00 0.00 0.00 0.00 0.00 0.00 0.00 0.00 0.00 0.00 0.00 0.00 0.00 0.00 0.00 0.00 0.00 0.00 0.00 0.00 0.00 0.00 0.00 0.00 0.00 0.00 0.00 0.00 0.00 0.00
0.00 0.00 0.00 0.00 0.00 0.00 0.00 0.00 0.00 0.00 0.00 0.00 0.00 0.00 0.00 0.00 0.00 0.00 0.00 0.00 0.00 0.00 0.00 0.00 0.00 0.00 0.00 0.00 0.00 0.00 0.00 0.00 0.00 0.00 0.00 0.00 0.00 0.00 0.00 0.00 0.00 0.00 0.00
0.01 0.00 0.00 0.00 0.00 0.00 0.00 0.00 0.00 0.00 0.00 0.00 0.00 0.00 0.00 0.00 0.00 0.00 0.00 0.00 0.00 0.00 0.00 0.01 0.01 0.00 0.00 0.00 0.00 0.00 0.00 0.00 0.00 0.00 0.00 0.00 0.00 0.00 0.01 0.01 0.01 0.01 0.01
0.01 0.02 0.02 0.01 0.01 0.01 0.01 0.00 0.00 0.00 0.00 0.00 0.00 0.00 0.00 0.00 0.00 0.00 0.01 0.01 0.00 0.00 0.00 0.01 0.01 0.00 0.01 0.00 0.00 0.00 0.00 0.00 0.00 0.00 0.00 0.00 0.00 0.01 0.02 0.02 0.02 0.02 0.01
0.02 0.02 0.03 0.03 0.02 0.01 0.01 0.01 0.01 0.01 0.01 0.01 0.01 0.01 0.01 0.01 0.01 0.01 0.01 0.01 0.00 0.00 0.00 0.00 0.01 0.00 0.00 0.01 0.01 0.01 0.01 0.00 0.00 0.00 0.00 0.00 0.00 0.00 0.00 0.01 0.01 0.01 0.01
0.02 0.02 0.03 0.02 0.02 0.02 0.02 0.02 0.01 0.01 0.02 0.02 0.01 0.02 0.01 0.01 0.02 0.02 0.02 0.01 0.00 0.01 0.01 0.01 0.01 0.00 0.01 0.01 0.01 0.01 0.01 0.01 0.01 0.01 0.01 0.00 0.00 0.00 0.00 0.00 0.00 0.01 0.01
0.01 0.01 0.01 0.02 0.02 0.02 0.02 0.02 0.02 0.02 0.02 0.02 0.02 0.02 0.02 0.02 0.03 0.03 0.03 0.02 0.01 0.01 0.01 0.01 0.02 0.02 0.01 0.01 0.01 0.01 0.01 0.01 0.02 0.03 0.03 0.02 0.01 0.01 0.01 0.01 0.01 0.01 0.01
0.01 0.01 0.01 0.01 0.01 0.02 0.02 0.02 0.02 0.02 0.02 0.02 0.02 0.02 0.02 0.02 0.02 0.03 0.03 0.02 0.02 0.01 0.01 0.01 0.02 0.02 0.01 0.02 0.01 0.01 0.01 0.01 0.01 0.01 0.02 0.02 0.01 0.01 0.01 0.01 0.02 0.02 0.02
0.01 0.00 0.00 0.00 0.00 0.01 0.01 0.01 0.01 0.00 0.00 0.01 0.01 0.01 0.01 0.01 0.02 0.02 0.02 0.02 0.02 0.01 0.00 0.01 0.01 0.01 0.01 0.01 0.01 0.01 0.01 0.01 0.01 0.02 0.02 0.01 0.01 0.01 0.02 0.02 0.02 0.03 0.02
0.01 0.00 0.00 0.00 0.00 0.01 0.01 0.01 0.01 0.01 0.01 0.00 0.00 0.00 0.00 0.00 0.00 0.00 0.00 0.01 0.01 0.01 0.01 0.01 0.01 0.01 0.01 0.01 0.01 0.01 0.01 0.01 0.02 0.02 0.02 0.02 0.03 0.03 0.03 0.03 0.03 0.03 0.03
0.00 0.00 0.00 0.00 0.00 0.00 0.00 0.00 0.00 0.00 0.00 0.00 0.00 0.00 0.00 0.00 0.00 0.00 0.00 0.00 0.00 0.01 0.01 0.01 0.01 0.02 0.02 0.02 0.02 0.02 0.03 0.03 0.03 0.03 0.03 0.04 0.04 0.05 0.05 0.05 0.04 0.04 0.03
0.00 0.00 0.00 0.00 0.00 0.00 0.00 0.00 0.00 0.00 0.00 0.00 0.00 0.00 0.00 0.00 0.00 0.00 0.00 0.00 0.00 0.01 0.01 0.01 0.02 0.03 0.03 0.04 0.05 0.06 0.06 0.07 0.07 0.06 0.06 0.06 0.06 0.07 0.07 0.06 0.05 0.03 0.02
0.00 0.00 0.00 0.00 0.00 0.00 0.00 0.00 0.00 0.00 0.00 0.00 0.00 0.00 0.00 0.00 0.00 0.00 0.00 0.00 0.00 0.00 0.01 0.01 0.02 0.03 0.03 0.04 0.05 0.07 0.08 0.09 0.11 0.11 0.11 0.10 0.09 0.08 0.07 0.06 0.05 0.04 0.03
0.00 0.00 0.00 0.00 0.00 0.00 0.00 0.00 0.00 0.00 0.00 0.00 0.00 0.00 0.00 0.00 0.00 0.00 0.00 0.00 0.00 0.01 0.01 0.02 0.03 0.03 0.04 0.05 0.06 0.07 0.08 0.10 0.11 0.11 0.11 0.10 0.10 0.10 0.09 0.08 0.06 0.06 0.05
0.00 0.00 0.00 0.00 0.00 0.00 0.00 0.00 0.00 0.00 0.00 0.00 0.00 0.00 0.00 0.00 0.00 0.00 0.00 0.01 0.02 0.03 0.03 0.03 0.04 0.05 0.06 0.08 0.09 0.09 0.10 0.10 0.10 0.10 0.09 0.09 0.09 0.09 0.07 0.07 0.07 0.06 0.05
0.00 0.00 0.00 0.00 0.00 0.00 0.00 0.00 0.00 0.00 0.00 0.01 0.01 0.01 0.01 0.01 0.01 0.01 0.02 0.03 0.04 0.04 0.05 0.06 0.08 0.10 0.11 0.13 0.13 0.13 0.13 0.12 0.12 0.11 0.10 0.10 0.09 0.09 0.07 0.07 0.07 0.08 0.07
0.00 0.00 0.00 0.00 0.00 0.00 0.00 0.00 0.00 0.00 0.01 0.01 0.01 0.01 0.00 0.01 0.02 0.03 0.04 0.04 0.05 0.07 0.07 0.08 0.09 0.10 0.12 0.14 0.15 0.15 0.14 0.13 0.12 0.12 0.12 0.10 0.09 0.07 0.07 0.07 0.07 0.07 0.07
0.00 0.00 0.00 0.00 0.00 0.00 0.00 0.00 0.01 0.01 0.02 0.02 0.02 0.01 0.01 0.02 0.03 0.04 0.05 0.06 0.07 0.09 0.11 0.12 0.13 0.14 0.15 0.17 0.18 0.18 0.17 0.16 0.15 0.14 0.13 0.12 0.10 0.09 0.08 0.07 0.07 0.07 0.07
0.00 0.00 0.00 0.00 0.00 0.00 0.00 0.01 0.01 0.02 0.02 0.02 0.02 0.02 0.02 0.03 0.03 0.04 0.06 0.08 0.09 0.12 0.15 0.17 0.18 0.19 0.20 0.22 0.23 0.22 0.22 0.21 0.19 0.17 0.14 0.13 0.12 0.10 0.10 0.09 0.08 0.08 0.08
0.00 0.00 0.00 0.00 0.00 0.01 0.01 0.01 0.01 0.02 0.02 0.02 0.02 0.02 0.03 0.03 0.04 0.05 0.07 0.08 0.10 0.13 0.15 0.17 0.21 0.23 0.21 0.20 0.20 0.18 0.16 0.16 0.14 0.12 0.11 0.11 0.11 0.10 0.10 0.09 0.08 0.07 0.07
0.00 0.00 0.00 0.00 0.00 0.01 0.01 0.01 0.01 0.01 0.02 0.02 0.02 0.02 0.02 0.02 0.02 0.04 0.07 0.09 0.11 0.13 0.13 0.13 0.16 0.17 0.15 0.13 0.13 0.12 0.12 0.10 0.09 0.07 0.07 0.07 0.08 0.07 0.07 0.07 0.07 0.06 0.07
0.00 0.00 0.00 0.00 0.00 0.01 0.01 0.01 0.01 0.01 0.02 0.01 0.02 0.02 0.02 0.02 0.03 0.05 0.06 0.06 0.08 0.09 0.09 0.10 0.13 0.12 0.11 0.10 0.08 0.07 0.07 0.06 0.05 0.04 0.03 0.03 0.03 0.05 0.06 0.06 0.05 0.05 0.06
MSLP
1014.73 1015.08 1015.41 1015.70 1015.96 1016.20 1016.42 1016.65 1016.90 1017.18 1017.49 1017.82 1018.17 1018.50 1018.81 1019.06 1019.27 1019.42 1019.53 1019.59 1019.64 1019.68 1019.72 1019.75 1019.78 1019.80 1019.80 1019.77 1019.70 1019.60 1019.46 1019.29 1019.11 1018.92 1018.73 1018.56 1018.42 1018.30 1018.22 1018.18 1018.18 1018.22 1018.29
1013.96 1014.30 1014.63 1014.93 1015.21 1015.48 1015.75 1016.03 1016.33 1016.65 1017.00 1017.35 1017.70 1018.03 1018.32 1018.57 1018.76 1018.91 1019.02 1019.10 1019.17 1019.23 1019.29 1019.35 1019.41 1019.45 1019.47 1019.47 1019.42 1019.34 1019.23 1019.08 1018.91 1018.73 1018.54 1018.35 1018.18 1018.02 1017.90 1017.80 1017.74 1017.72 1017.74
1013.25 1013.58 1013.89 1014.19 1014.49 1014.78 1015.09 1015.42 1015.76 1016.12 1016.49 1016.85 1017.20 1017.52 1017.79 1018.02 1018.20 1018.34 1018.44 1018.53 1018.62 1018.70 1018.78 1018.86 1018.94 1019.01 1019.06 1019.08 1019.07 1019.02 1018.94 1018.83 1018.69 1018.53 1018.35 1018.15 1017.96 1017.77 1017.60 1017.45 1017.32 1017.24 1017.19
1012.69 1012.99 1013.28 1013.57 1013.87 1014.18 1014.50 1014.85 1015.22 1015.60 1015.98 1016.34 1016.68 1016.97 1017.22 1017.43 1017.59 1017.71 1017.81 1017.90 1017.99 1018.08 1018.18 1018.28 1018.37 1018.46 1018.53 1018.58 1018.61 1018.60 1018.56 1018.50 1018.40 1018.27 1018.12 1017.94 1017.75 1017.54 1017.33 1017.13 1016.94 1016.79 1016.67
1012.33 1012.60 1012.86 1013.13 1013.41 1013.71 1014.04 1014.38 1014.75 1015.12 1015.48 1015.83 1016.13 1016.40 1016.62 1016.80 1016.93 1017.04 1017.13 1017.21 1017.29 1017.39 1017.48 1017.59 1017.69 1017.79 1017.88 1017.95 1018.01 1018.05 1018.06 1018.05 1018.00 1017.93 1017.82 1017.67 1017.49 1017.28 1017.05 1016.81 1016.58 1016.37 1016.18
1012.22 1012.45 1012.68 1012.91 1013.16 1013.43 1013.73 1014.05 1014.38 1014.71 1015.04 1015.34 1015.60 1015.83 1016.01 1016.15 1016.25 1016.34 1016.41 1016.48 1016.55 1016.62 1016.71 1016.80 1016.90 1017.00 1017.09 1017.19 1017.27 1017.35 1017.41 1017.45 1017.47 1017.45 1017.39 1017.28 1017.13 1016.94 1016.71 1016.46 1016.20 1015.94 1015.70
1012.39 1012.58 1012.76 1012.95 1013.16 1013.38 1013.62 1013.88 1014.15 1014.42 1014.67 1014.91 1015.11 1015.28 1015.41 1015.51 1015.59 1015.64 1015.69 1015.73 1015.78 1015.83 1015.89 1015.96 1016.03 1016.11 1016.20 1016.30 1016.40 1016.50 1016.61 1016.70 1016.77 1016.80 1016.80 1016.74 1016.62 1016.46 1016.25 1016.00 1015.74 1015.47 1015.20
1012.81 1012.96 1013.10 1013.24 1013.39 1013.55 1013.72 1013.90 1014.08 1014.26 1014.43 1014.58 1014.71 1014.81 1014.89 1014.94 1014.98 1015.00 1015.02 1015.04 1015.05 1015.06 1015.08 1015.11 1015.14 1015.18 1015.25 1015.33 1015.43 1015.54 1015.67 1015.79 1015.90 1015.98 1016.02 1016.00 1015.93 1015.80 1015.62 1015.40 1015.15 1014.89 1014.64
1013.42 1013.54 1013.64 1013.74 1013.83 1013.92 1014.00 1014.09 1014.18 1014.26 1014.33 1014.39 1014.43 1014.47 1014.49 1014.50 1014.50 1014.49 1014.47 1014.45 1014.42 1014.39 1014.35 1014.32 1014.29 1014.28 1014.29 1014.34 1014.41 1014.52 1014.64 1014.78 1014.91 1015.01 1015.07 1015.09 1015.04 1014.94 1014.80 1014.61 1014.41 1014.19 1013.97
1014.14 1014.23 1014.31 1014.36 1014.40 1014.42 1014.42 1014.42 1014.40 1014.38 1014.36 1014.33 1014.31 1014.28 1014.25 1014.22 1014.19 1014.15 1014.10 1014.03 1013.95 1013.86 1013.75 1013.64 1013.54 1013.45 1013.39 1013.38 1013.40 1013.47 1013.57 1013.69 1013.81 1013.91 1013.98 1014.01 1013.98 1013.91 1013.80 1013.65 1013.50 1013.33 1013.18
1014.87 1014.95 1015.00 1015.02 1015.00 1014.96 1014.90 1014.81 1014.71 1014.61 1014.51 1014.41 1014.32 1014.25 1014.18 1014.12 1014.07 1014.00 1013.92 1013.81 1013.67 1013.50 1013.31 1013.11 1012.91 1012.72 1012.58 1012.47 1012.43 1012.43 1012.48 1012.56 1012.65 1012.73 1012.79 1012.81 1012.79 1012.73 1012.64 1012.53 1012.43 1012.33 1012.25
1015.52 1015.58 1015.61 1015.61 1015.55 1015.46 1015.34 1015.20 1015.03 1014.87 1014.71 1014.57 1014.45 1014.35 1014.26 1014.19 1014.12 1014.03 1013.91 1013.75 1013.55 1013.30 1013.01 1012.70 1012.39 1012.09 1011.83 1011.62 1011.48 1011.40 1011.38 1011.40 1011.44 1011.48 1011.51 1011.52 1011.49 1011.44 1011.37 1011.30 1011.24 1011.20 1011.20
1016.01 1016.06 1016.07 1016.04 1015.96 1015.84 1015.68 1015.49 1015.30 1015.10 1014.92 1014.75 1014.62 1014.52 1014.43 1014.36 1014.28 1014.17 1014.02 1013.80 1013.53 1013.19 1012.79 1012.36 1011.92 1011.49 1011.11 1010.78 1010.53 1010.36 1010.25 1010.20 1010.19 1010.19 1010.19 1010.17 1010.13 1010.08 1010.03 1009.99 1009.97 1009.99 1010.04
1016.29 1016.32 1016.32 1016.26 1016.16 1016.02 1015.84 1015.64 1015.43 1015.23 1015.05 1014.90 1014.78 1014.69 1014.62 1014.55 1014.46 1014.33 1014.14 1013.87 1013.51 1013.08 1012.57 1012.01 1011.43 1010.87 1010.35 1009.90 1009.54 1009.26 1009.07 1008.95 1008.89 1008.85 1008.82 1008.79 1008.76 1008.72 1008.68 1008.67 1008.68 1008.74 1008.84
1016.37 1016.37 1016.34 1016.27 1016.15 1016.00 1015.82 1015.62 1015.42 1015.24 1015.08 1014.95 1014.85 1014.79 1014.73 1014.67 1014.57 1014.42 1014.18 1013.85 1013.41 1012.87 1012.24 1011.56 1010.85 1010.15 1009.50 1008.93 1008.46 1008.09 1007.83 1007.65 1007.54 1007.48 1007.45 1007.42 1007.40 1007.38 1007.37 1007.38 1007.43 1007.51 1007.64
1016.26 1016.24 1016.17 1016.08 1015.95 1015.80 1015.63 1015.45 1015.27 1015.11 1014.98 1014.88 1014.81 1014.76 1014.71 1014.65 1014.53 1014.34 1014.05 1013.65 1013.12 1012.48 1011.75 1010.94 1010.11 1009.30 1008.53 1007.86 1007.29 1006.85 1006.53 1006.31 1006.18 1006.12 1006.10 1006.10 1006.11 1006.13 1006.15 1006.20 1006.27 1006.37 1006.52
1016.05 1015.99 1015.90 1015.79 1015.65 1015.50 1015.34 1015.18 1015.03 1014.90 1014.79 1014.72 1014.66 1014.61 1014.55 1014.46 1014.31 1014.07 1013.72 1013.25 1012.64 1011.91 1011.07 1010.17 1009.24 1008.33 1007.47 1006.72 1006.08 1005.58 1005.22 1004.99 1004.86 1004.81 1004.82 1004.86 1004.92 1004.99 1005.07 1005.15 1005.25 1005.37 1005.51
1015.82 1015.73 1015.61 1015.48 1015.34 1015.20 1015.05 1014.91 1014.78 1014.66 1014.57 1014.49 1014.43 1014.36 1014.27 1014.14 1013.93 1013.63 1013.21 1012.66 1011.98 1011.17 1010.27 1009.29 1008.30 1007.32 1006.40 1005.60 1004.92 1004.39 1004.01 1003.77 1003.65 1003.63 1003.68 1003.77 1003.89 1004.02 1004.15 1004.27 1004.40 1004.53 1004.66
1015.65 1015.53 1015.40 1015.26 1015.12 1014.98 1014.84 1014.71 1014.58 1014.47 1014.37 1014.27 1014.18 1014.06 1013.92 1013.72 1013.44 1013.07 1012.58 1011.96 1011.22 1010.36 1009.41 1008.40 1007.37 1006.37 1005.43 1004.60 1003.91 1003.36 1002.98 1002.75 1002.64 1002.65 1002.74 1002.88 1003.05 1003.23 1003.41 1003.57 1003.72 1003.86 1003.98
1015.61 1015.47 1015.32 1015.18 1015.04 1014.90 1014.77 1014.64 1014.51 1014.39 1014.26 1014.12 1013.96 1013.78 1013.56 1013.28 1012.92 1012.47 1011.92 1011.25 1010.46 1009.58 1008.62 1007.60 1006.58 1005.59 1004.66 1003.84 1003.15 1002.61 1002.23 1002.00 1001.91 1001.94 1002.05 1002.22 1002.43 1002.64 1002.85 1003.04 1003.20 1003.34 1003.44
1015.72 1015.57 1015.42 1015.28 1015.14 1015.01 1014.87 1014.74 1014.59 1014.43 1014.26 1014.06 1013.84 1013.57 1013.26 1012.89 1012.45 1011.92 1011.31 1010.60 1009.80 1008.92 1007.98 1007.00 1006.01 1005.06 1004.17 1003.38 1002.72 1002.20 1001.82 1001.59 1001.50 1001.52 1001.63 1001.81 1002.02 1002.24 1002.46 1002.65 1002.81 1002.93 1003.00
1015.99 1015.84 1015.70 1015.55 1015.41 1015.28 1015.14 1014.98 1014.81 1014.61 1014.38 1014.12 1013.81 1013.46 1013.05 1012.60 1012.07 1011.49 1010.83 1010.10 1009.30 1008.45 1007.55 1006.63 1005.71 1004.83 1004.00 1003.26 1002.63 1002.13 1001.75 1001.52 1001.40 1001.39 1001.48 1001.62 1001.81 1002.01 1002.20 1002.36 1002.49 1002.58 1002.61
1016.40 1016.25 1016.10 1015.96 1015.81 1015.66 1015.51 1015.33 1015.12 1014.88 1014.60 1014.26 1013.88 1013.44 1012.96 1012.42 1011.83 1011.20 1010.51 1009.78 1009.01 1008.20 1007.36 1006.52 1005.68 1004.88 1004.12 1003.44 1002.85 1002.36 1001.98 1001.72 1001.57 1001.52 1001.54 1001.63 1001.76 1001.90 1002.03 1002.14 1002.22 1002.25 1002.22
1016.90 1016.74 1016.58 1016.42 1016.26 1016.10 1015.92 1015.71 1015.47 1015.19 1014.85 1014.46 1014.01 1013.51 1012.95 1012.36 1011.72 1011.05 1010.36 1009.63 1008.89 1008.13 1007.37 1006.61 1005.85 1005.13 1004.45 1003.82 1003.27 1002.80 1002.41 1002.12 1001.92 1001.80 1001.76 1001.76 1001.80 1001.86 1001.92 1001.95 1001.95 1001.91 1001.81
1017.42 1017.25 1017.07 1016.88 1016.70 1016.51 1016.31 1016.07 1015.80 1015.48 1015.10 1014.66 1014.16 1013.61 1013.01 1012.38 1011.71 1011.03 1010.33 1009.62 1008.91 1008.21 1007.51 1006.82 1006.15 1005.50 1004.88 1004.31 1003.79 1003.32 1002.93 1002.61 1002.35 1002.17 1002.04 1001.95 1001.90 1001.86 1001.82 1001.76 1001.67 1001.53 1001.35
1017.91 1017.71 1017.50 1017.29 1017.08 1016.86 1016.62 1016.36 1016.06 1015.71 1015.30 1014.84 1014.31 1013.73 1013.11 1012.45 1011.77 1011.08 1010.39 1009.71 1009.03 1008.37 1007.72 1007.09 1006.48 1005.89 1005.32 1004.79 1004.29 1003.84 1003.43 1003.08 1002.78 1002.52 1002.32 1002.14 1001.99 1001.85 1001.71 1001.55 1001.36 1001.13 1000.86
Thickness
5737 5734 5732 5731 5729 5726 5724 5722 5720 5718 5715 5712 5710 5707 5705 5702 5699 5696 5695 5694 5690 5689 5687 5685 5683 5681 5682 5682 5680 5678 5677 5675 5672 5675 5678 5678 5672 5669 5670 5670 5670 5670 5672
5740 5736 5733 5731 5729 5727 5725 5723 5720 5717 5715 5712 5709 5706 5703 5701 5698 5695 5692 5691 5689 5687 5685 5683 5681 5680 5677 5676 5675 5675 5673 5671 5667 5666 5669 5670 5669 5666 5665 5664 5666 5669 5668
5742 5738 5735 5732 5730 5728 5727 5724 5720 5717 5714 5711 5708 5705 5702 5700 5697 5694 5691 5689 5687 5686 5684 5681 5679 5677 5673 5673 5670 5670 5670 5669 5665 5663 5664 5665 5664 5664 5662 5661 5663 5662 5663
5744 5739 5736 5734 5732 5729 5726 5723 5720 5716 5712 5709 5707 5704 5701 5698 5696 5693 5690 5688 5685 5684 5682 5680 5678 5675 5672 5669 5667 5664 5663 5662 5661 5659 5660 5660 5659 5659 5656 5656 5658 5660 5659
5742 5738 5736 5733 5731 5727 5724 5721 5718 5714 5711 5708 5705 5702 5699 5697 5695 5692 5689 5686 5683 5681 5679 5677 5676 5673 5671 5666 5665 5664 5660 5657 5657 5657 5657 5656 5655 5653 5652 5653 5653 5653 5655
5737 5735 5734 5731 5727 5724 5721 5718 5714 5711 5708 5705 5702 5699 5697 5696 5694 5688 5684 5682 5680 5678 5676 5675 5673 5670 5666 5660 5658 5655 5653 5651 5651 5650 5652 5651 5648 5647 5646 5645 5645 5645 5645
5729 5728 5726 5724 5721 5719 5717 5713 5710 5706 5703 5700 5698 5696 5694 5693 5688 5682 5677 5675 5675 5675 5674 5671 5670 5672 5665 5662 5656 5649 5646 5643 5641 5641 5644 5644 5643 5641 5637 5637 5635 5635 5636
5719 5717 5716 5714 5712 5710 5707 5705 5702 5700 5697 5694 5692 5691 5689 5688 5682 5676 5671 5667 5669 5671 5670 5668 5665 5664 5662 5658 5654 5652 5649 5646 5640 5634 5636 5638 5636 5633 5630 5628 5627 5626 5627
5707 5704 5703 5702 5699 5697 5695 5693 5691 5689 5687 5686 5684 5682 5680 5679 5673 5667 5660 5661 5662 5664 5664 5664 5662 5660 5657 5649 5644 5644 5644 5645 5641 5637 5634 5632 5628 5624 5621 5619 5620 5619 5622
5693 5691 5690 5688 5687 5685 5683 5682 5681 5678 5677 5676 5675 5673 5671 5669 5665 5658 5650 5652 5655 5658 5659 5659 5655 5653 5650 5643 5637 5636 5636 5638 5636 5634 5628 5625 5621 5618 5613 5609 5611 5612 5615
5679 5677 5675 5674 5673 5672 5671 5669 5668 5667 5665 5663 5662 5661 5660 5657 5653 5647 5641 5640 5643 5646 5648 5649 5650 5646 5639 5634 5629 5629 5630 5629 5627 5625 5624 5623 5620 5618 5615 5610 5607 5607 5609
5664 5662 5661 5660 5661 5660 5658 5657 5655 5653 5654 5652 5650 5649 5649 5646 5641 5637 5630 5626 5625 5627 5631 5634 5635 5630 5625 5620 5618 5618 5616 5611 5613 5616 5617 5618 5618 5617 5616 5613 5608 5604 5602
5650 5649 5648 5648 5646 5646 5645 5645 5644 5642 5641 5640 5638 5636 5635 5633 5629 5623 5619 5614 5611 5610 5615 5616 5614 5610 5607 5607 5606 5604 5600 5599 5601 5605 5608 5611 5613 5613 5610 5606 5602 5598 5594
5638 5637 5636 5635 5635 5633 5631 5632 5630 5627 5625 5622 5620 5619 5618 5616 5613 5610 5605 5602 5600 5599 5602 5601 5597 5596 5594 5594 5595 5594 5592 5593 5595 5597 5600 5602 5602 5602 5600 5598 5594 5592 5588
5627 5626 5626 5626 5623 5618 5619 5615 5613 5609 5604 5598 5599 5597 5596 5595 5589 5577 5574 5578 5577 5577 5574 5577 5582 5586 5588 5589 5589 5589 5588 5586 5584 5586 5588 5589 5590 5590 5590 5588 5585 5584 5583
5616 5615 5615 5614 5611 5609 5606 5605 5600 5594 5588 5582 5577 5572 5573 5568 5562 5559 5555 5553 5551 5549 5549 5561 5567 5571 5574 5576 5576 5577 5577 5576 5575 5575 5575 5576 5577 5578 5578 5577 5577 5576 5577
5602 5601 5601 5600 5597 5595 5592 5589 5586 5583 5576 5570 5564 5557 5551 5546 5542 5539 5537 5536 5535 5531 5536 5546 5551 5553 5556 5559 5561 5562 5563 5564 5563 5562 5562 5564 5565 5566 5567 5568 5569 5569 5570
5590 5589 5585 5584 5582 5580 5576 5573 5569 5566 5562 5559 5552 5543 5536 5529 5525 5521 5519 5517 5527 5528 5528 5530 5531 5533 5535 5538 5542 5545 5547 5549 5550 5550 5550 5552 5554 5555 5556 5558 5559 5560 5562
5577 5576 5570 5568 5566 5564 5560 5555 5551 5546 5541 5537 5532 5527 5520 5515 5510 5507 5504 5506 5510 5510 5510 5510 5511 5513 5514 5517 5521 5525 5529 5533 5537 5538 5539 5541 5543 5544 5546 5549 5550 5551 5550
5563 5555 5550 5549 5549 5546 5541 5535 5530 5525 5520 5515 5510 5506 5501 5497 5497 5495 5492 5490 5489 5490 5491 5492 5492 5494 5496 5499 5504 5509 5513 5519 5523 5526 5529 5532 5534 5535 5538 5540 5542 5544 5546
5549 5544 5535 5534 5531 5525 5519 5514 5509 5504 5500 5494 5490 5485 5474 5477 5478 5477 5476 5474 5473 5473 5474 5475 5477 5480 5483 5487 5492 5496 5502 5507 5512 5516 5520 5523 5526 5528 5531 5533 5536 5537 5539
5530 5527 5521 5517 5511 5505 5498 5495 5490 5485 5480 5476 5474 5470 5464 5463 5464 5463 5462 5461 5460 5460 5461 5463 5466 5469 5473 5478 5482 5487 5493 5499 5503 5508 5512 5515 5518 5521 5524 5527 5529 5532 5535
5513 5509 5504 5498 5492 5485 5482 5478 5473 5468 5464 5461 5458 5456 5454 5452 5451 5451 5451 5451 5451 5452 5453 5456 5459 5464 5468 5472 5476 5480 5485 5491 5496 5501 5505 5509 5512 5516 5519 5522 5525 5528 5530
5495 5491 5486 5481 5475 5471 5466 5462 5457 5453 5450 5448 5446 5444 5443 5442 5441 5441 5441 5442 5443 5446 5448 5450 5454 5458 5463 5467 5472 5476 5479 5483 5488 5493 5498 5503 5508 5511 5514 5517 5520 5523 5525
5480 5474 5469 5464 5459 5455 5451 5447 5443 5440 5438 5436 5434 5433 5432 5431 5431 5432 5433 5435 5438 5441 5445 5448 5451 5455 5459 5464 5468 5471 5473 5476 5480 5485 5492 5498 5503 5507 5509 5512 5515 5517 5519
5464 5459 5454 5450 5446 5442 5439 5435 5433 5430 5428 5426 5425 5424 5424 5424 5425 5427 5429 5431 5435 5439 5443 5447 5451 5454 5458 5462 5465 5467 5469 5473 5476 5479 5484 5492 5497 5501 5503 5505 5507 5510 5512